Lapse_Rate
8.6 9.8 9.6 8.0 9.3 8.6 9.1 7.5 5.5 5.6 6.0 6.0 6.1 6.1 6.5 9.6 9.5 9.5 9.8 9.7 9.7 9.8
7.7 8.6 8.1 6.9 7.3 8.1 7.1 8.7 6.0 5.8 6.3 7.0 7.4 7.0 7.0 9.8 9.8 9.5 9.7 9.7 9.8 9.7
6.8 7.0 6.9 7.0 6.8 6.7 6.5 6.2 6.4 6.5 7.1 8.1 8.6 7.9 7.3 9.6 9.5 9.7 9.8 9.9 9.7 9.8
6.4 6.3 6.6 6.9 6.5 6.7 6.2 6.1 6.5 6.7 7.6 8.8 8.8 8.0 8.1 9.1 9.8 9.6 9.7 9.9 9.8 9.7
5.7 6.2 6.6 7.0 6.8 6.0 6.9 6.5 6.5 6.8 7.7 8.6 8.7 8.1 8.6 9.1 9.4 9.6 9.6 9.7 9.7 9.7
5.9 6.3 7.2 7.7 7.1 6.7 6.7 7.1 6.8 7.5 7.9 8.0 7.7 8.4 9.4 9.7 9.8 9.8 9.8 9.8 9.7 9.7
6.5 7.5 8.5 8.2 7.5 6.9 6.7 6.9 7.6 7.5 7.9 7.7 8.9 9.4 9.6 8.6 8.5 9.2 9.8 9.9 9.9 9.9
7.5 8.3 8.8 7.7 7.5 7.0 6.4 7.4 8.0 8.6 9.5 9.3 9.4 9.2 6.1 6.3 7.0 8.1 9.4 9.8 10.0 9.8
8.3 8.1 8.0 7.8 7.7 7.5 7.8 9.4 9.6 9.8 9.8 9.7 9.9 2.3 2.6 3.4 5.9 7.1 9.7 9.7 9.9 9.9
8.1 8.5 8.8 8.8 9.2 9.0 9.5 9.7 9.5 9.7 9.8 9.7 9.8 4.0 2.8 3.1 5.0 6.8 9.8 9.8 9.9 9.9
8.6 9.0 9.5 9.5 9.5 9.5 9.5 9.6 9.6 9.7 9.7 9.7 9.8 4.8 3.1 3.0 5.0 9.7 9.9 10.0 9.9 9.9
8.9 9.3 9.4 9.4 9.4 9.5 9.6 9.5 9.6 9.7 9.7 9.7 9.8 4.5 3.1 3.2 6.8 9.7 9.8 10.0 9.8 9.9
8.6 8.9 9.4 9.4 9.5 9.5 9.4 9.2 9.6 9.6 9.8 8.7 8.6 5.7 4.5 3.9 7.0 8.5 9.6 9.6 9.8 9.5
8.9 8.0 9.2 9.5 8.8 8.3 8.9 9.5 9.5 9.5 9.7 9.8 9.6 9.3 5.1 3.6 6.0 8.1 8.0 9.3 9.5 9.8
Wind_Speed
6 4 3 4 3 3 3 4 5 6 7 8 9 9 9 7 8 9 7 9 8 8
5 3 4 3 1 3 2 3 4 5 6 7 7 8 9 6 6 8 8 7 8 8
6 5 4 3 2 2 3 2 3 4 5 6 7 8 8 6 8 7 7 6 9 8
7 5 4 3 3 3 2 1 3 4 5 5 6 7 7 6 6 8 8 9 9 10
7 6 5 4 3 3 1 1 3 4 5 6 6 7 6 6 7 8 9 9 10 11
7 6 5 5 4 3 2 2 3 4 4 5 6 7 6 7 8 9 9 10 10 11
8 7 6 5 4 3 2 3 3 4 5 5 6 7 5 8 9 10 10 10 10 11
8 7 6 5 4 4 4 4 4 5 6 6 7 4 5 9 10 10 11 11 11 12
9 8 7 6 5 5 5 5 5 6 5 6 6 10 4 7 10 11 11 11 11 14
10 9 8 7 6 6 6 5 6 6 6 6 5 8 3 5 12 11 11 11 11 11
10 9 8 8 7 7 6 6 6 6 6 7 4 10 4 4 13 10 11 11 11 12
11 10 9 9 8 7 6 6 6 5 6 7 5 9 6 5 10 10 11 10 14 13
11 10 10 9 8 6 6 6 5 6 7 4 7 12 7 3 7 10 8 11 13 13
11 10 9 8 7 7 7 6 6 7 7 7 7 4 9 3 6 7 8 9 9 10
Wind_Direction
142 134 117 58 54 57 57 47 33 15 7 4 3 3 1 358 350 360 354 350 343 335
133 126 97 100 95 88 57 93 34 8 355 354 355 357 350 4 351 350 346 340 343 332
139 139 132 133 101 94 107 42 9 353 344 343 346 350 345 351 351 341 334 330 334 329
149 148 158 157 151 137 133 14 348 338 329 338 339 344 340 343 329 332 327 326 324 322
157 165 172 171 164 169 200 299 333 325 324 330 334 332 332 328 330 324 322 323 320 322
175 181 187 177 179 189 242 274 305 311 315 320 324 317 321 320 324 320 317 315 319 317
186 186 187 186 193 201 244 275 286 297 295 298 299 305 323 331 325 317 315 313 310 307
189 188 182 192 199 217 254 274 276 274 276 284 288 316 350 329 318 315 312 305 302 305
185 191 195 203 212 225 241 244 257 266 273 279 280 115 85 327 313 308 304 305 310 308
189 197 200 209 216 231 241 253 258 266 267 275 283 139 126 321 302 304 300 303 310 310
193 200 205 212 223 232 242 245 256 267 270 276 282 157 138 306 294 297 301 309 313 312
196 203 207 216 226 233 239 248 252 261 268 272 275 160 160 303 307 305 308 317 316 319
196 206 211 217 227 233 241 254 259 256 265 274 274 164 159 298 304 306 313 317 311 313
196 204 214 213 219 229 237 242 251 260 262 267 268 209 158 186 301 307 315 305 309 311